Time,TemperatureF,DewpointF,PressureIn,WindDirection,WindDirectionDegrees,WindSpeedMPH,WindSpeedGustMPH,Humidity,HourlyPrecipIn,Conditions,Clouds,dailyrainin,SoftwareType,DateUTC
2013-04-05 00:00:00,42.4,21.0,29.45,WSW,248,1.0,2.0,42,0.00,,,0.00,meteohub,2013-04-05 05:00:00,
2013-04-05 00:05:00,42.4,21.0,29.45,WSW,248,1.0,2.0,42,0.00,,,0.00,meteohub,2013-04-05 05:05:00,
2013-04-05 00:10:00,42.3,20.8,29.42,WSW,248,0.0,1.0,42,0.00,,,0.00,meteohub,2013-04-05 05:10:00,
2013-04-05 00:16:00,42.1,21.2,29.42,WSW,248,1.0,1.0,43,0.00,,,0.00,meteohub,2013-04-05 05:16:00,
2013-04-05 00:21:00,41.9,21.0,29.42,WSW,248,0.0,1.0,43,0.00,,,0.00,meteohub,2013-04-05 05:21:00,
2013-04-05 00:27:00,41.5,21.7,29.45,WSW,248,0.0,1.0,45,0.00,,,0.00,meteohub,2013-04-05 05:27:00,
2013-04-05 00:32:00,41.4,22.1,29.45,WSW,248,0.0,1.0,46,0.00,,,0.00,meteohub,2013-04-05 05:32:00,
2013-04-05 00:37:00,41.2,23.0,29.42,WSW,248,0.0,0.0,48,0.00,,,0.00,meteohub,2013-04-05 05:37:00,
2013-04-05 00:42:00,41.2,22.1,29.42,WSW,248,0.0,0.0,46,0.00,,,0.00,meteohub,2013-04-05 05:42:00,
2013-04-05 00:47:00,41.2,21.6,29.42,WSW,248,0.0,1.0,45,0.00,,,0.00,meteohub,2013-04-05 05:47:00,
2013-04-05 00:52:00,41.2,21.6,29.45,WSW,248,0.0,1.0,45,0.00,,,0.00,meteohub,2013-04-05 05:52:00,
2013-04-05 00:57:00,41.0,21.4,29.45,WSW,248,0.0,1.0,45,0.00,,,0.00,meteohub,2013-04-05 05:57:00,
2013-04-05 01:02:00,41.0,21.9,29.45,WSW,248,0.0,0.0,46,0.00,,,0.00,meteohub,2013-04-05 06:02:00,
2013-04-05 01:08:00,40.6,22.5,29.45,WSW,248,0.0,0.0,48,0.00,,,0.00,meteohub,2013-04-05 06:08:00,
2013-04-05 01:13:00,40.5,22.3,29.45,WSW,248,0.0,0.0,48,0.00,,,0.00,meteohub,2013-04-05 06:13:00,
2013-04-05 01:18:00,40.3,22.3,29.45,WSW,248,0.0,0.0,48,0.00,,,0.00,meteohub,2013-04-05 06:18:00,
2013-04-05 01:23:00,40.3,22.3,29.45,WSW,248,0.0,0.0,48,0.00,,,0.00,meteohub,2013-04-05 06:23:00,
2013-04-05 01:28:00,40.3,22.3,29.45,WSW,248,0.0,0.0,48,0.00,,,0.00,meteohub,2013-04-05 06:28:00,
2013-04-05 01:33:00,40.3,22.6,29.45,WSW,248,0.0,0.0,49,0.00,,,0.00,meteohub,2013-04-05 06:33:00,
2013-04-05 01:39:00,40.3,22.6,29.45,WSW,248,0.0,0.0,49,0.00,,,0.00,meteohub,2013-04-05 06:39:00,
2013-04-05 01:44:00,40.3,22.6,29.45,WSW,248,0.0,0.0,49,0.00,,,0.00,meteohub,2013-04-05 06:44:00,
2013-04-05 01:50:00,40.3,22.3,29.45,WSW,248,0.0,0.0,48,0.00,,,0.00,meteohub,2013-04-05 06:50:00,
2013-04-05 01:55:00,40.3,22.6,29.42,WSW,248,1.0,1.0,49,0.00,,,0.00,meteohub,2013-04-05 06:55:00,
2013-04-05 02:00:00,40.3,22.6,29.42,WSW,248,0.0,1.0,49,0.00,,,0.00,meteohub,2013-04-05 07:00:00,
2013-04-05 02:06:00,40.1,22.5,29.42,WSW,248,0.0,1.0,49,0.00,,,0.00,meteohub,2013-04-05 07:06:00,
2013-04-05 02:11:00,39.7,22.1,29.42,WSW,248,0.0,1.0,49,0.00,,,0.00,meteohub,2013-04-05 07:11:00,
2013-04-05 02:16:00,39.6,22.5,29.42,WSW,248,0.0,1.0,50,0.00,,,0.00,meteohub,2013-04-05 07:16:00,
2013-04-05 02:22:00,39.4,22.8,29.45,WSW,248,0.0,1.0,51,0.00,,,0.00,meteohub,2013-04-05 07:22:00,
2013-04-05 02:27:00,39.2,22.6,29.45,WSW,248,0.0,0.0,51,0.00,,,0.00,meteohub,2013-04-05 07:27:00,
2013-04-05 02:32:00,39.0,22.5,29.45,WSW,248,0.0,0.0,51,0.00,,,0.00,meteohub,2013-04-05 07:32:00,
2013-04-05 02:37:00,38.8,22.8,29.45,WSW,248,0.0,0.0,52,0.00,,,0.00,meteohub,2013-04-05 07:37:00,
2013-04-05 02:42:00,38.8,22.8,29.45,WSW,248,0.0,0.0,52,0.00,,,0.00,meteohub,2013-04-05 07:42:00,
2013-04-05 02:47:00,38.8,22.8,29.45,WSW,248,1.0,1.0,52,0.00,,,0.00,meteohub,2013-04-05 07:47:00,
2013-04-05 02:52:00,38.8,22.8,29.45,WSW,248,0.0,2.0,52,0.00,,,0.00,meteohub,2013-04-05 07:52:00,
2013-04-05 02:57:00,39.0,23.0,29.45,WSW,248,0.0,2.0,52,0.00,,,0.00,meteohub,2013-04-05 07:57:00,
2013-04-05 03:02:00,39.0,22.5,29.45,WSW,248,1.0,2.0,51,0.00,,,0.00,meteohub,2013-04-05 08:02:00,
2013-04-05 03:07:00,39.2,22.6,29.45,WSW,248,0.0,2.0,51,0.00,,,0.00,meteohub,2013-04-05 08:07:00,
2013-04-05 03:12:00,39.2,23.2,29.45,WSW,248,0.0,2.0,52,0.00,,,0.00,meteohub,2013-04-05 08:12:00,
2013-04-05 03:17:00,39.0,23.0,29.45,WSW,248,0.0,2.0,52,0.00,,,0.00,meteohub,2013-04-05 08:17:00,
2013-04-05 03:22:00,38.8,23.2,29.42,WSW,248,1.0,2.0,53,0.00,,,0.00,meteohub,2013-04-05 08:22:00,
2013-04-05 03:27:00,38.5,22.8,29.42,SSW,202,1.0,2.0,53,0.00,,,0.00,meteohub,2013-04-05 08:27:00,
2013-04-05 03:33:00,38.5,23.4,29.42,South,180,1.0,2.0,54,0.00,,,0.00,meteohub,2013-04-05 08:33:00,
2013-04-05 03:38:00,38.3,23.2,29.45,South,180,0.0,2.0,54,0.00,,,0.00,meteohub,2013-04-05 08:38:00,
2013-04-05 03:43:00,38.1,23.4,29.45,South,180,0.0,2.0,55,0.00,,,0.00,meteohub,2013-04-05 08:43:00,
2013-04-05 03:49:00,38.1,23.4,29.45,South,180,0.0,2.0,55,0.00,,,0.00,meteohub,2013-04-05 08:49:00,
2013-04-05 03:54:00,37.9,23.2,29.45,SW,225,2.0,2.0,55,0.00,,,0.00,meteohub,2013-04-05 08:54:00,
2013-04-05 03:59:00,37.9,23.7,29.45,SW,225,2.0,2.0,56,0.00,,,0.00,meteohub,2013-04-05 08:59:00,
2013-04-05 04:05:00,37.9,23.7,29.45,WSW,248,2.0,2.0,56,0.00,,,0.00,meteohub,2013-04-05 09:05:00,
2013-04-05 04:11:00,37.9,23.7,29.45,WSW,248,2.0,2.0,56,0.00,,,0.00,meteohub,2013-04-05 09:11:00,
2013-04-05 04:16:00,37.9,23.7,29.45,West,270,2.0,2.0,56,0.00,,,0.00,meteohub,2013-04-05 09:16:00,
2013-04-05 04:21:00,38.1,23.9,29.45,West,270,1.0,2.0,56,0.00,,,0.00,meteohub,2013-04-05 09:21:00,
2013-04-05 04:27:00,37.9,23.7,29.45,West,270,2.0,3.0,56,0.00,,,0.00,meteohub,2013-04-05 09:27:00,
2013-04-05 04:32:00,38.1,23.9,29.45,West,270,3.0,3.0,56,0.00,,,0.00,meteohub,2013-04-05 09:32:00,
2013-04-05 04:38:00,38.3,24.1,29.48,West,270,0.0,3.0,56,0.00,,,0.00,meteohub,2013-04-05 09:38:00,
2013-04-05 04:43:00,38.5,24.3,29.48,WNW,292,3.0,3.0,56,0.00,,,0.00,meteohub,2013-04-05 09:43:00,
2013-04-05 04:48:00,38.7,24.4,29.48,WSW,248,3.0,3.0,56,0.00,,,0.00,meteohub,2013-04-05 09:48:00,
2013-04-05 04:53:00,38.8,24.4,29.48,WSW,248,1.0,3.0,56,0.00,,,0.00,meteohub,2013-04-05 09:53:00,
2013-04-05 04:58:00,38.8,24.1,29.48,WSW,248,2.0,3.0,55,0.00,,,0.00,meteohub,2013-04-05 09:58:00,
2013-04-05 05:04:00,38.7,24.4,29.48,WSW,248,2.0,3.0,56,0.00,,,0.00,meteohub,2013-04-05 10:04:00,
2013-04-05 05:09:00,38.5,24.3,29.48,WSW,248,2.0,2.0,56,0.00,,,0.00,meteohub,2013-04-05 10:09:00,
2013-04-05 05:14:00,38.5,24.3,29.48,West,270,2.0,2.0,56,0.00,,,0.00,meteohub,2013-04-05 10:14:00,
2013-04-05 05:19:00,38.5,24.3,29.48,West,270,2.0,2.0,56,0.00,,,0.00,meteohub,2013-04-05 10:19:00,
2013-04-05 05:25:00,38.5,24.6,29.48,West,270,1.0,3.0,57,0.00,,,0.00,meteohub,2013-04-05 10:25:00,
2013-04-05 05:31:00,38.7,24.8,29.48,West,270,2.0,3.0,57,0.00,,,0.00,meteohub,2013-04-05 10:31:00,
2013-04-05 05:36:00,38.5,24.3,29.48,West,270,1.0,3.0,56,0.00,,,0.00,meteohub,2013-04-05 10:36:00,
2013-04-05 05:41:00,38.5,24.3,29.48,West,270,1.0,2.0,56,0.00,,,0.00,meteohub,2013-04-05 10:41:00,
2013-04-05 05:47:00,38.3,24.8,29.48,WSW,248,2.0,2.0,58,0.00,,,0.00,meteohub,2013-04-05 10:47:00,
2013-04-05 05:52:00,38.1,24.3,29.48,WSW,248,1.0,2.0,57,0.00,,,0.00,meteohub,2013-04-05 10:52:00,
2013-04-05 05:57:00,38.1,24.3,29.48,WSW,248,1.0,2.0,57,0.00,,,0.00,meteohub,2013-04-05 10:57:00,
2013-04-05 06:02:00,37.9,24.4,29.48,WSW,248,0.0,2.0,58,0.00,,,0.00,meteohub,2013-04-05 11:02:00,
2013-04-05 06:08:00,37.8,23.9,29.48,SW,225,0.0,2.0,57,0.00,,,0.00,meteohub,2013-04-05 11:08:00,
2013-04-05 06:13:00,37.6,23.7,29.48,SW,225,0.0,2.0,57,0.00,,,0.00,meteohub,2013-04-05 11:13:00,
2013-04-05 06:18:00,37.4,23.5,29.48,SW,225,0.0,0.0,57,0.00,,,0.00,meteohub,2013-04-05 11:18:00,
2013-04-05 06:24:00,37.2,23.9,29.51,SW,225,0.0,0.0,58,0.00,,,0.00,meteohub,2013-04-05 11:24:00,
2013-04-05 06:29:00,37.0,23.7,29.51,SW,225,0.0,0.0,58,0.00,,,0.00,meteohub,2013-04-05 11:29:00,
2013-04-05 06:34:00,37.0,23.7,29.51,SW,225,2.0,0.0,58,0.00,,,0.00,meteohub,2013-04-05 11:34:00,
2013-04-05 06:39:00,37.0,23.7,29.51,WSW,248,2.0,2.0,58,0.00,,,0.00,meteohub,2013-04-05 11:39:00,
2013-04-05 06:44:00,37.0,24.1,29.51,West,270,1.0,2.0,59,0.00,,,0.00,meteohub,2013-04-05 11:44:00,
2013-04-05 06:49:00,37.2,24.3,29.51,SW,225,2.0,2.0,59,0.00,,,0.00,meteohub,2013-04-05 11:49:00,
2013-04-05 06:55:00,37.4,24.4,29.51,West,270,1.0,2.0,59,0.00,,,0.00,meteohub,2013-04-05 11:55:00,
2013-04-05 07:00:00,37.6,24.6,29.51,West,270,1.0,2.0,59,0.00,,,0.00,meteohub,2013-04-05 12:00:00,
2013-04-05 07:05:00,37.6,24.6,29.51,WSW,248,0.0,2.0,59,0.00,,,0.00,meteohub,2013-04-05 12:05:00,
2013-04-05 07:10:00,37.8,25.2,29.51,WSW,248,1.0,2.0,60,0.00,,,0.00,meteohub,2013-04-05 12:10:00,
2013-04-05 07:16:00,37.9,25.3,29.51,WSW,248,1.0,2.0,60,0.00,,,0.00,meteohub,2013-04-05 12:16:00,
2013-04-05 07:21:00,38.3,25.7,29.51,WSW,248,2.0,2.0,60,0.00,,,0.00,meteohub,2013-04-05 12:21:00,
2013-04-05 07:26:00,39.0,26.8,29.51,SW,225,2.0,2.0,61,0.00,,,0.00,meteohub,2013-04-05 12:26:00,
2013-04-05 07:31:00,39.6,27.3,29.51,WSW,248,2.0,2.0,61,0.00,,,0.00,meteohub,2013-04-05 12:31:00,
2013-04-05 07:36:00,40.5,28.6,29.54,WSW,248,2.0,3.0,62,0.00,,,0.00,meteohub,2013-04-05 12:36:00,
2013-04-05 07:42:00,41.2,28.8,29.54,WSW,248,1.0,3.0,61,0.00,,,0.00,meteohub,2013-04-05 12:42:00,
2013-04-05 07:47:00,42.6,29.3,29.54,West,270,3.0,3.0,59,0.00,,,0.00,meteohub,2013-04-05 12:47:00,
2013-04-05 07:52:00,43.3,27.9,29.51,West,270,2.0,4.0,54,0.00,,,0.00,meteohub,2013-04-05 12:52:00,
2013-04-05 07:57:00,43.9,28.8,29.51,NNW,338,3.0,4.0,55,0.00,,,0.00,meteohub,2013-04-05 12:57:00,
2013-04-05 08:03:00,44.4,28.4,29.51,West,270,4.0,4.0,53,0.00,,,0.00,meteohub,2013-04-05 13:03:00,
2013-04-05 08:08:00,45.5,28.0,29.48,WNW,292,3.0,4.0,50,0.00,,,0.00,meteohub,2013-04-05 13:08:00,
2013-04-05 08:13:00,46.2,28.2,29.48,WNW,292,3.0,6.0,49,0.00,,,0.00,meteohub,2013-04-05 13:13:00,
2013-04-05 08:18:00,46.8,28.2,29.48,WNW,292,4.0,6.0,48,0.00,,,0.00,meteohub,2013-04-05 13:18:00,
2013-04-05 08:24:00,46.9,27.9,29.51,WNW,292,4.0,6.0,47,0.00,,,0.00,meteohub,2013-04-05 13:24:00,
2013-04-05 08:29:00,47.3,28.6,29.51,NNW,338,3.0,6.0,48,0.00,,,0.00,meteohub,2013-04-05 13:29:00,
2013-04-05 08:34:00,47.7,28.4,29.51,NNE,22,3.0,6.0,47,0.00,,,0.00,meteohub,2013-04-05 13:34:00,
2013-04-05 08:39:00,48.2,27.3,29.51,NNW,338,6.0,6.0,44,0.00,,,0.00,meteohub,2013-04-05 13:39:00,
2013-04-05 08:45:00,48.7,27.9,29.51,NNW,338,4.0,6.0,44,0.00,,,0.00,meteohub,2013-04-05 13:45:00,
2013-04-05 08:50:00,49.1,28.2,29.51,North,0,4.0,6.0,44,0.00,,,0.00,meteohub,2013-04-05 13:50:00,
2013-04-05 08:55:00,50.2,28.6,29.48,NE,45,4.0,6.0,43,0.00,,,0.00,meteohub,2013-04-05 13:55:00,
2013-04-05 09:01:00,50.4,27.7,29.48,North,0,6.0,8.0,41,0.00,,,0.00,meteohub,2013-04-05 14:01:00,
2013-04-05 09:06:00,50.4,27.7,29.51,North,0,7.0,9.0,41,0.00,,,0.00,meteohub,2013-04-05 14:06:00,
2013-04-05 09:11:00,50.7,27.9,29.51,North,0,6.0,9.0,41,0.00,,,0.00,meteohub,2013-04-05 14:11:00,
2013-04-05 09:17:00,51.3,28.4,29.51,NNE,22,8.0,9.0,41,0.00,,,0.00,meteohub,2013-04-05 14:17:00,
2013-04-05 09:22:00,51.4,29.1,29.51,North,0,4.0,9.0,42,0.00,,,0.00,meteohub,2013-04-05 14:22:00,
2013-04-05 09:27:00,52.7,29.7,29.51,NNW,338,6.0,9.0,41,0.00,,,0.00,meteohub,2013-04-05 14:27:00,
2013-04-05 09:32:00,53.4,30.4,29.51,North,0,5.0,9.0,41,0.00,,,0.00,meteohub,2013-04-05 14:32:00,
2013-04-05 09:38:00,54.0,30.2,29.51,North,0,6.0,8.0,40,0.00,,,0.00,meteohub,2013-04-05 14:38:00,
2013-04-05 09:43:00,54.3,30.6,29.51,North,0,3.0,8.0,40,0.00,,,0.00,meteohub,2013-04-05 14:43:00,
2013-04-05 09:49:00,55.6,31.6,29.51,NE,45,3.0,8.0,40,0.00,,,0.00,meteohub,2013-04-05 14:49:00,
2013-04-05 09:54:00,55.9,31.5,29.51,NNE,22,4.0,8.0,39,0.00,,,0.00,meteohub,2013-04-05 14:54:00,
2013-04-05 10:00:00,56.3,31.6,29.51,NNE,22,3.0,6.0,39,0.00,,,0.00,meteohub,2013-04-05 15:00:00,
2013-04-05 10:05:00,56.8,32.2,29.51,NNW,338,5.0,6.0,39,0.00,,,0.00,meteohub,2013-04-05 15:05:00,
2013-04-05 10:10:00,56.5,31.3,29.54,NE,45,6.0,6.0,38,0.00,,,0.00,meteohub,2013-04-05 15:10:00,
2013-04-05 10:15:00,56.5,31.3,29.54,North,0,9.0,9.0,38,0.00,,,0.00,meteohub,2013-04-05 15:15:00,
2013-04-05 10:20:00,56.7,31.5,29.54,NNE,22,6.0,9.0,38,0.00,,,0.00,meteohub,2013-04-05 15:20:00,
2013-04-05 10:26:00,57.4,31.3,29.54,NNW,338,4.0,9.0,37,0.00,,,0.00,meteohub,2013-04-05 15:26:00,
2013-04-05 10:31:00,57.9,31.8,29.54,North,0,7.0,9.0,37,0.00,,,0.00,meteohub,2013-04-05 15:31:00,
2013-04-05 10:37:00,58.1,32.0,29.54,NNW,338,6.0,9.0,37,0.00,,,0.00,meteohub,2013-04-05 15:37:00,
2013-04-05 10:42:00,58.6,33.1,29.54,North,0,5.0,10.0,38,0.00,,,0.00,meteohub,2013-04-05 15:42:00,
2013-04-05 10:47:00,59.4,33.1,29.54,West,270,3.0,10.0,37,0.00,,,0.00,meteohub,2013-04-05 15:47:00,
2013-04-05 10:52:00,59.9,33.6,29.54,North,0,6.0,10.0,37,0.00,,,0.00,meteohub,2013-04-05 15:52:00,
2013-04-05 10:57:00,60.1,33.1,29.54,NNW,338,3.0,8.0,36,0.00,,,0.00,meteohub,2013-04-05 15:57:00,
2013-04-05 11:02:00,59.4,32.4,29.54,NNE,22,5.0,8.0,36,0.00,,,0.00,meteohub,2013-04-05 16:02:00,
2013-04-05 11:07:00,59.7,32.0,29.54,NNE,22,8.0,10.0,35,0.00,,,0.00,meteohub,2013-04-05 16:07:00,
2013-04-05 11:12:00,59.4,31.8,29.54,West,270,5.0,10.0,35,0.00,,,0.00,meteohub,2013-04-05 16:12:00,
2013-04-05 11:18:00,59.4,31.8,29.54,NW,315,6.0,11.0,35,0.00,,,0.00,meteohub,2013-04-05 16:18:00,
2013-04-05 11:23:00,59.7,32.7,29.57,NNW,338,3.0,11.0,36,0.00,,,0.00,meteohub,2013-04-05 16:23:00,
2013-04-05 11:28:00,59.4,31.8,29.57,NW,315,5.0,11.0,35,0.00,,,0.00,meteohub,2013-04-05 16:28:00,
2013-04-05 11:33:00,60.1,32.4,29.57,NNE,22,9.0,11.0,35,0.00,,,0.00,meteohub,2013-04-05 16:33:00,
2013-04-05 11:39:00,60.4,32.7,29.54,NNW,338,6.0,9.0,35,0.00,,,0.00,meteohub,2013-04-05 16:39:00,
2013-04-05 11:44:00,60.3,31.8,29.54,NNE,22,6.0,9.0,34,0.00,,,0.00,meteohub,2013-04-05 16:44:00,
2013-04-05 11:50:00,60.4,32.0,29.54,NNE,22,7.0,9.0,34,0.00,,,0.00,meteohub,2013-04-05 16:50:00,
2013-04-05 11:55:00,60.1,28.6,29.54,NNE,22,8.0,11.0,30,0.00,,,0.00,meteohub,2013-04-05 16:55:00,
2013-04-05 12:00:00,60.6,28.2,29.54,NNW,338,9.0,13.0,29,0.00,,,0.00,meteohub,2013-04-05 17:00:00,
2013-04-05 12:05:00,61.2,27.9,29.54,North,0,6.0,13.0,28,0.00,,,0.00,meteohub,2013-04-05 17:05:00,
2013-04-05 12:11:00,61.2,27.0,29.54,NNE,22,9.0,14.0,27,0.00,,,0.00,meteohub,2013-04-05 17:11:00,
2013-04-05 12:16:00,60.8,27.5,29.54,NNE,22,11.0,14.0,28,0.00,,,0.00,meteohub,2013-04-05 17:16:00,
2013-04-05 12:22:00,61.0,27.7,29.54,North,0,9.0,14.0,28,0.00,,,0.00,meteohub,2013-04-05 17:22:00,
2013-04-05 12:27:00,61.2,27.9,29.54,North,0,7.0,11.0,28,0.00,,,0.00,meteohub,2013-04-05 17:27:00,
2013-04-05 12:32:00,61.7,28.4,29.54,NNW,338,6.0,11.0,28,0.00,,,0.00,meteohub,2013-04-05 17:32:00,
2013-04-05 12:37:00,62.8,29.3,29.54,NW,315,4.0,13.0,28,0.00,,,0.00,meteohub,2013-04-05 17:37:00,
2013-04-05 12:42:00,63.1,29.5,29.54,NNW,338,6.0,13.0,28,0.00,,,0.00,meteohub,2013-04-05 17:42:00,
2013-04-05 12:47:00,63.1,29.5,29.54,NE,45,7.0,10.0,28,0.00,,,0.00,meteohub,2013-04-05 17:47:00,
2013-04-05 12:52:00,62.8,29.3,29.54,ENE,68,6.0,9.0,28,0.00,,,0.00,meteohub,2013-04-05 17:52:00,
2013-04-05 12:57:00,63.7,30.0,29.54,NNE,22,6.0,10.0,28,0.00,,,0.00,meteohub,2013-04-05 17:57:00,
2013-04-05 13:02:00,64.0,30.4,29.54,NNW,338,6.0,10.0,28,0.00,,,0.00,meteohub,2013-04-05 18:02:00,
2013-04-05 13:07:00,64.0,29.5,29.54,North,0,4.0,10.0,27,0.00,,,0.00,meteohub,2013-04-05 18:07:00,
2013-04-05 13:12:00,64.2,29.7,29.54,North,0,6.0,10.0,27,0.00,,,0.00,meteohub,2013-04-05 18:12:00,
2013-04-05 13:18:00,65.3,29.7,29.54,NNW,338,8.0,10.0,26,0.00,,,0.00,meteohub,2013-04-05 18:18:00,
2013-04-05 13:23:00,66.4,30.6,29.51,WNW,292,4.0,9.0,26,0.00,,,0.00,meteohub,2013-04-05 18:23:00,
2013-04-05 13:28:00,65.5,29.7,29.51,NNE,22,5.0,9.0,26,0.00,,,0.00,meteohub,2013-04-05 18:28:00,
2013-04-05 13:33:00,64.4,27.9,29.51,NNW,338,4.0,9.0,25,0.00,,,0.00,meteohub,2013-04-05 18:33:00,
2013-04-05 13:39:00,64.6,28.9,29.51,NW,315,2.0,9.0,26,0.00,,,0.00,meteohub,2013-04-05 18:39:00,
2013-04-05 13:44:00,65.5,29.7,29.51,NNE,22,8.0,9.0,26,0.00,,,0.00,meteohub,2013-04-05 18:44:00,
2013-04-05 13:49:00,64.9,28.4,29.51,North,0,7.0,10.0,25,0.00,,,0.00,meteohub,2013-04-05 18:49:00,
2013-04-05 13:55:00,64.8,28.2,29.51,ESE,112,5.0,10.0,25,0.00,,,0.00,meteohub,2013-04-05 18:55:00,
2013-04-05 14:00:00,65.7,28.9,29.51,NW,315,8.0,10.0,25,0.00,,,0.00,meteohub,2013-04-05 19:00:00,
2013-04-05 14:05:00,66.0,29.3,29.51,NNW,338,1.0,10.0,25,0.00,,,0.00,meteohub,2013-04-05 19:05:00,
2013-04-05 14:10:00,67.3,30.4,29.51,NNE,22,3.0,9.0,25,0.00,,,0.00,meteohub,2013-04-05 19:10:00,
2013-04-05 14:16:00,65.8,29.1,29.51,NNE,22,4.0,9.0,25,0.00,,,0.00,meteohub,2013-04-05 19:16:00,
2013-04-05 14:22:00,65.8,29.1,29.51,NNW,338,4.0,9.0,25,0.00,,,0.00,meteohub,2013-04-05 19:22:00,
2013-04-05 14:27:00,66.4,28.6,29.51,NNE,22,5.0,9.0,24,0.00,,,0.00,meteohub,2013-04-05 19:27:00,
2013-04-05 14:32:00,67.1,29.1,29.51,SSW,202,2.0,9.0,24,0.00,,,0.00,meteohub,2013-04-05 19:32:00,
2013-04-05 14:37:00,68.0,29.8,29.51,NE,45,6.0,6.0,24,0.00,,,0.00,meteohub,2013-04-05 19:37:00,
2013-04-05 14:42:00,65.5,27.9,29.51,NNE,22,3.0,11.0,24,0.00,,,0.00,meteohub,2013-04-05 19:42:00,
2013-04-05 14:48:00,65.5,27.9,29.51,North,0,6.0,13.0,24,0.00,,,0.00,meteohub,2013-04-05 19:48:00,
2013-04-05 14:53:00,66.0,28.2,29.51,NNE,22,8.0,13.0,24,0.00,,,0.00,meteohub,2013-04-05 19:53:00,
2013-04-05 14:58:00,65.7,27.9,29.51,NNE,22,10.0,11.0,24,0.00,,,0.00,meteohub,2013-04-05 19:58:00,
2013-04-05 15:04:00,66.2,28.4,29.51,NNW,338,6.0,13.0,24,0.00,,,0.00,meteohub,2013-04-05 20:04:00,
2013-04-05 15:09:00,67.1,29.1,29.51,West,270,5.0,13.0,24,0.00,,,0.00,meteohub,2013-04-05 20:09:00,
2013-04-05 15:14:00,68.4,29.1,29.51,NNW,338,3.0,13.0,23,0.00,,,0.00,meteohub,2013-04-05 20:14:00,
2013-04-05 15:20:00,66.7,28.9,29.51,NNE,22,3.0,10.0,24,0.00,,,0.00,meteohub,2013-04-05 20:20:00,
2013-04-05 15:25:00,67.3,29.3,29.48,North,0,4.0,8.0,24,0.00,,,0.00,meteohub,2013-04-05 20:25:00,
2013-04-05 15:30:00,66.6,27.7,29.48,NNE,22,6.0,8.0,23,0.00,,,0.00,meteohub,2013-04-05 20:30:00,
2013-04-05 15:35:00,66.7,27.9,29.48,ENE,68,4.0,7.0,23,0.00,,,0.00,meteohub,2013-04-05 20:35:00,
2013-04-05 15:40:00,66.6,27.7,29.48,NNE,22,3.0,8.0,23,0.00,,,0.00,meteohub,2013-04-05 20:40:00,
2013-04-05 15:45:00,66.4,27.5,29.48,NNE,22,7.0,9.0,23,0.00,,,0.00,meteohub,2013-04-05 20:45:00,
2013-04-05 15:51:00,66.0,28.2,29.48,East,90,2.0,9.0,24,0.00,,,0.00,meteohub,2013-04-05 20:51:00,
2013-04-05 15:56:00,66.6,27.7,29.48,North,0,4.0,9.0,23,0.00,,,0.00,meteohub,2013-04-05 20:56:00,
2013-04-05 16:01:00,66.4,27.5,29.48,NNW,338,3.0,10.0,23,0.00,,,0.00,meteohub,2013-04-05 21:01:00,
2013-04-05 16:06:00,66.0,28.2,29.48,NW,315,6.0,10.0,24,0.00,,,0.00,meteohub,2013-04-05 21:06:00,
2013-04-05 16:11:00,65.8,28.0,29.48,North,0,5.0,10.0,24,0.00,,,0.00,meteohub,2013-04-05 21:11:00,
2013-04-05 16:17:00,65.5,27.9,29.48,SSW,202,1.0,8.0,24,0.00,,,0.00,meteohub,2013-04-05 21:17:00,
2013-04-05 16:22:00,65.8,28.0,29.48,ESE,112,1.0,6.0,24,0.00,,,0.00,meteohub,2013-04-05 21:22:00,
2013-04-05 16:27:00,66.2,28.4,29.48,West,270,7.0,7.0,24,0.00,,,0.00,meteohub,2013-04-05 21:27:00,
2013-04-05 16:32:00,66.0,28.2,29.48,WSW,248,3.0,9.0,24,0.00,,,0.00,meteohub,2013-04-05 21:32:00,
2013-04-05 16:38:00,65.7,27.9,29.48,NW,315,3.0,9.0,24,0.00,,,0.00,meteohub,2013-04-05 21:38:00,
2013-04-05 16:43:00,64.8,27.1,29.48,WNW,292,9.0,9.0,24,0.00,,,0.00,meteohub,2013-04-05 21:43:00,
2013-04-05 16:48:00,64.6,27.0,29.48,West,270,5.0,9.0,24,0.00,,,0.00,meteohub,2013-04-05 21:48:00,
2013-04-05 16:53:00,64.8,27.1,29.48,NW,315,3.0,9.0,24,0.00,,,0.00,meteohub,2013-04-05 21:53:00,
2013-04-05 16:58:00,64.4,27.0,29.48,ENE,68,1.0,9.0,24,0.00,,,0.00,meteohub,2013-04-05 21:58:00,
2013-04-05 17:04:00,64.8,27.1,29.48,NNW,338,7.0,7.0,24,0.00,,,0.00,meteohub,2013-04-05 22:04:00,
2013-04-05 17:09:00,64.4,27.0,29.48,NNW,338,3.0,6.0,24,0.00,,,0.00,meteohub,2013-04-05 22:09:00,
2013-04-05 17:15:00,64.4,27.0,29.48,NW,315,4.0,8.0,24,0.00,,,0.00,meteohub,2013-04-05 22:15:00,
2013-04-05 17:20:00,64.0,26.6,29.48,North,0,5.0,8.0,24,0.00,,,0.00,meteohub,2013-04-05 22:20:00,
2013-04-05 17:25:00,64.0,26.6,29.48,West,270,3.0,8.0,24,0.00,,,0.00,meteohub,2013-04-05 22:25:00,
2013-04-05 17:30:00,63.5,26.1,29.48,North,0,6.0,8.0,24,0.00,,,0.00,meteohub,2013-04-05 22:30:00,
2013-04-05 17:36:00,63.1,25.9,29.51,NW,315,2.0,8.0,24,0.00,,,0.00,meteohub,2013-04-05 22:36:00,
2013-04-05 17:41:00,63.0,25.7,29.51,WNW,292,3.0,8.0,24,0.00,,,0.00,meteohub,2013-04-05 22:41:00,
2013-04-05 17:46:00,62.8,25.5,29.51,NNE,22,5.0,8.0,24,0.00,,,0.00,meteohub,2013-04-05 22:46:00,
2013-04-05 17:51:00,62.8,26.4,29.48,North,0,3.0,8.0,25,0.00,,,0.00,meteohub,2013-04-05 22:51:00,
2013-04-05 17:56:00,62.6,26.4,29.48,NNE,22,6.0,8.0,25,0.00,,,0.00,meteohub,2013-04-05 22:56:00,
2013-04-05 18:02:00,62.4,26.2,29.48,NNE,22,6.0,8.0,25,0.00,,,0.00,meteohub,2013-04-05 23:02:00,
2013-04-05 18:07:00,62.4,26.2,29.48,WSW,248,2.0,7.0,25,0.00,,,0.00,meteohub,2013-04-05 23:07:00,
2013-04-05 18:12:00,62.1,25.9,29.48,NNW,338,2.0,7.0,25,0.00,,,0.00,meteohub,2013-04-05 23:12:00,
2013-04-05 18:17:00,61.9,25.7,29.48,North,0,3.0,6.0,25,0.00,,,0.00,meteohub,2013-04-05 23:17:00,
2013-04-05 18:22:00,61.7,25.5,29.48,NE,45,2.0,6.0,25,0.00,,,0.00,meteohub,2013-04-05 23:22:00,
2013-04-05 18:27:00,61.5,25.3,29.48,NNW,338,4.0,5.0,25,0.00,,,0.00,meteohub,2013-04-05 23:27:00,
2013-04-05 18:32:00,61.7,25.5,29.48,North,0,4.0,5.0,25,0.00,,,0.00,meteohub,2013-04-05 23:32:00,
2013-04-05 18:37:00,61.3,25.3,29.48,ENE,68,2.0,6.0,25,0.00,,,0.00,meteohub,2013-04-05 23:37:00,
2013-04-05 18:43:00,61.3,26.2,29.48,NE,45,4.0,6.0,26,0.00,,,0.00,meteohub,2013-04-05 23:43:00,
2013-04-05 18:48:00,61.3,26.2,29.48,NNE,22,4.0,6.0,26,0.00,,,0.00,meteohub,2013-04-05 23:48:00,
2013-04-05 18:53:00,61.0,25.9,29.48,NE,45,2.0,5.0,26,0.00,,,0.00,meteohub,2013-04-05 23:53:00,
2013-04-05 18:59:00,60.6,25.5,29.48,NE,45,4.0,5.0,26,0.00,,,0.00,meteohub,2013-04-05 23:59:00,
2013-04-05 19:04:00,60.3,26.2,29.48,NE,45,4.0,5.0,27,0.00,,,0.00,meteohub,2013-04-06 00:04:00,
2013-04-05 19:09:00,60.1,26.1,29.48,NE,45,3.0,6.0,27,0.00,,,0.00,meteohub,2013-04-06 00:09:00,
2013-04-05 19:14:00,59.5,25.5,29.48,NE,45,4.0,6.0,27,0.00,,,0.00,meteohub,2013-04-06 00:14:00,
2013-04-05 19:20:00,59.2,25.3,29.48,NE,45,4.0,6.0,27,0.00,,,0.00,meteohub,2013-04-06 00:20:00,
2013-04-05 19:25:00,59.0,26.1,29.48,ENE,68,2.0,6.0,28,0.00,,,0.00,meteohub,2013-04-06 00:25:00,
2013-04-05 19:30:00,58.8,25.9,29.48,NE,45,4.0,4.0,28,0.00,,,0.00,meteohub,2013-04-06 00:30:00,
2013-04-05 19:35:00,58.5,25.5,29.48,NNE,22,4.0,4.0,28,0.00,,,0.00,meteohub,2013-04-06 00:35:00,
2013-04-05 19:40:00,58.3,26.2,29.51,NE,45,4.0,4.0,29,0.00,,,0.00,meteohub,2013-04-06 00:40:00,
2013-04-05 19:45:00,58.1,26.1,29.51,NE,45,2.0,4.0,29,0.00,,,0.00,meteohub,2013-04-06 00:45:00,
2013-04-05 19:51:00,57.6,25.5,29.48,ENE,68,0.0,4.0,29,0.00,,,0.00,meteohub,2013-04-06 00:51:00,
2013-04-05 19:56:00,57.0,25.2,29.48,NE,45,2.0,4.0,29,0.00,,,0.00,meteohub,2013-04-06 00:56:00,
2013-04-05 20:01:00,57.0,25.9,29.48,NE,45,2.0,2.0,30,0.00,,,0.00,meteohub,2013-04-06 01:01:00,
2013-04-05 20:06:00,57.0,25.9,29.48,NE,45,2.0,2.0,30,0.00,,,0.00,meteohub,2013-04-06 01:06:00,
2013-04-05 20:12:00,56.5,26.2,29.51,ENE,68,0.0,3.0,31,0.00,,,0.00,meteohub,2013-04-06 01:12:00,
2013-04-05 20:17:00,55.9,26.6,29.51,ENE,68,0.0,3.0,32,0.00,,,0.00,meteohub,2013-04-06 01:17:00,
2013-04-05 20:22:00,55.2,26.6,29.51,ENE,68,2.0,2.0,33,0.00,,,0.00,meteohub,2013-04-06 01:22:00,
2013-04-05 20:28:00,55.2,27.3,29.51,NE,45,2.0,2.0,34,0.00,,,0.00,meteohub,2013-04-06 01:28:00,
2013-04-05 20:33:00,55.4,28.2,29.51,NE,45,2.0,2.0,35,0.00,,,0.00,meteohub,2013-04-06 01:33:00,
2013-04-05 20:38:00,55.2,28.0,29.51,ENE,68,0.0,3.0,35,0.00,,,0.00,meteohub,2013-04-06 01:38:00,
2013-04-05 20:43:00,54.3,28.0,29.51,ENE,68,1.0,3.0,36,0.00,,,0.00,meteohub,2013-04-06 01:43:00,
2013-04-05 20:49:00,54.0,27.7,29.51,NE,45,1.0,2.0,36,0.00,,,0.00,meteohub,2013-04-06 01:49:00,
2013-04-05 20:54:00,53.8,27.5,29.51,ENE,68,2.0,2.0,36,0.00,,,0.00,meteohub,2013-04-06 01:54:00,
2013-04-05 20:59:00,53.6,27.3,29.51,ENE,68,0.0,2.0,36,0.00,,,0.00,meteohub,2013-04-06 01:59:00,
2013-04-05 21:04:00,53.4,27.9,29.51,ENE,68,0.0,2.0,37,0.00,,,0.00,meteohub,2013-04-06 02:04:00,
2013-04-05 21:09:00,53.1,27.5,29.48,NE,45,1.0,2.0,37,0.00,,,0.00,meteohub,2013-04-06 02:09:00,
2013-04-05 21:15:00,53.1,28.2,29.48,NNE,22,2.0,2.0,38,0.00,,,0.00,meteohub,2013-04-06 02:15:00,
2013-04-05 21:20:00,52.9,28.0,29.48,NE,45,0.0,2.0,38,0.00,,,0.00,meteohub,2013-04-06 02:20:00,
2013-04-05 21:25:00,52.7,27.9,29.51,NE,45,0.0,2.0,38,0.00,,,0.00,meteohub,2013-04-06 02:25:00,
2013-04-05 21:31:00,52.2,28.0,29.51,NE,45,0.0,2.0,39,0.00,,,0.00,meteohub,2013-04-06 02:31:00,
2013-04-05 21:36:00,51.6,28.2,29.48,NE,45,0.0,0.0,40,0.00,,,0.00,meteohub,2013-04-06 02:36:00,
2013-04-05 21:42:00,51.4,28.0,29.48,ENE,68,2.0,0.0,40,0.00,,,0.00,meteohub,2013-04-06 02:42:00,
2013-04-05 21:47:00,51.3,28.9,29.48,ENE,68,0.0,2.0,42,0.00,,,0.00,meteohub,2013-04-06 02:47:00,
2013-04-05 21:52:00,50.9,28.0,29.51,ENE,68,0.0,2.0,41,0.00,,,0.00,meteohub,2013-04-06 02:52:00,
2013-04-05 21:57:00,50.7,29.1,29.51,ENE,68,0.0,2.0,43,0.00,,,0.00,meteohub,2013-04-06 02:57:00,
2013-04-05 22:02:00,50.4,29.3,29.51,ENE,68,0.0,1.0,44,0.00,,,0.00,meteohub,2013-04-06 03:02:00,
2013-04-05 22:07:00,50.0,29.5,29.51,ENE,68,0.0,1.0,45,0.00,,,0.00,meteohub,2013-04-06 03:07:00,
2013-04-05 22:12:00,49.8,29.3,29.51,ENE,68,0.0,0.0,45,0.00,,,0.00,meteohub,2013-04-06 03:12:00,
2013-04-05 22:17:00,49.5,29.1,29.51,ENE,68,0.0,0.0,45,0.00,,,0.00,meteohub,2013-04-06 03:17:00,
2013-04-05 22:22:00,49.1,28.8,29.51,ENE,68,1.0,0.0,45,0.00,,,0.00,meteohub,2013-04-06 03:22:00,
2013-04-05 22:26:00,49.5,28.6,29.51,NE,45,0.0,2.0,44,0.00,,,0.00,meteohub,2013-04-06 03:26:00,
2013-04-05 22:32:00,49.5,28.6,29.51,NE,45,0.0,2.0,44,0.00,,,0.00,meteohub,2013-04-06 03:32:00,
2013-04-05 22:37:00,49.6,29.1,29.48,ENE,68,2.0,2.0,45,0.00,,,0.00,meteohub,2013-04-06 03:37:00,
2013-04-05 22:42:00,49.8,28.8,29.48,ENE,68,0.0,2.0,44,0.00,,,0.00,meteohub,2013-04-06 03:42:00,
2013-04-05 22:48:00,49.6,28.6,29.48,NE,45,3.0,3.0,44,0.00,,,0.00,meteohub,2013-04-06 03:48:00,
2013-04-05 22:53:00,50.4,28.2,29.48,ENE,68,2.0,4.0,42,0.00,,,0.00,meteohub,2013-04-06 03:53:00,
2013-04-05 22:58:00,50.0,27.9,29.48,East,90,2.0,4.0,42,0.00,,,0.00,meteohub,2013-04-06 03:58:00,
2013-04-05 23:00:00,50.0,27.9,29.48,ENE,68,2.0,4.0,42,0.00,,,0.00,meteohub,2013-04-06 04:00:00,
2013-04-05 23:02:00,50.0,27.9,29.48,NE,45,2.0,4.0,42,0.00,,,0.00,meteohub,2013-04-06 04:02:00,
2013-04-05 23:03:00,50.0,27.9,29.48,East,90,2.0,4.0,42,0.00,,,0.00,meteohub,2013-04-06 04:03:00,
2013-04-05 23:08:00,50.2,27.5,29.48,East,90,2.0,4.0,41,0.00,,,0.00,meteohub,2013-04-06 04:08:00,
2013-04-05 23:13:00,50.0,27.3,29.48,ENE,68,2.0,3.0,41,0.00,,,0.00,meteohub,2013-04-06 04:13:00,
2013-04-05 23:18:00,50.4,27.0,29.48,East,90,2.0,3.0,40,0.00,,,0.00,meteohub,2013-04-06 04:18:00,
2013-04-05 23:24:00,50.0,26.6,29.48,ENE,68,2.0,4.0,40,0.00,,,0.00,meteohub,2013-04-06 04:24:00,
2013-04-05 23:29:00,50.2,26.8,29.48,East,90,2.0,4.0,40,0.00,,,0.00,meteohub,2013-04-06 04:29:00,
2013-04-05 23:35:00,49.8,27.1,29.48,ENE,68,0.0,3.0,41,0.00,,,0.00,meteohub,2013-04-06 04:35:00,
2013-04-05 23:40:00,49.5,26.8,29.48,ENE,68,1.0,3.0,41,0.00,,,0.00,meteohub,2013-04-06 04:40:00,
2013-04-05 23:45:00,49.8,27.1,29.48,ENE,68,2.0,3.0,41,0.00,,,0.00,meteohub,2013-04-06 04:45:00,
2013-04-05 23:50:00,49.6,26.4,29.48,SE,135,0.0,3.0,40,0.00,,,0.00,meteohub,2013-04-06 04:50:00,
2013-04-05 23:55:00,49.5,26.2,29.48,SSE,158,2.0,3.0,40,0.00,,,0.00,meteohub,2013-04-06 04:55:00,